Location: Eitze
(52.9840°N, 9.6894°E)
Time: 09:57:34
(UTC+00:00)

Cosmos 1812 Rocket - Pass Details

Date: 19 May 2025
Orbit: 601 x 624 km, 82.5° (Epoch: 23 June)

Event Time Altitude Azimuth Distance (km) Brightness Sun altitude
Exits shadow 20:49:02 11° 171° (S) 1,863 5.5 -10.3°
Maximum altitude 20:53:00 54° 95° (E) 741 3.7 -10.6°
Drops below altitude 10° 20:57:14 10° 19° (NNE) 1,962 6.7 -11.0°
Sets 20:59:30 0° 15° (NNE) 2,873 7.7 -11.1°
